| time (UTC) | temp F | wind direction | speed MPH | gust MPH | rain 1hr in | rain 24hr in | rain mn in | humidity % | barometer mb |
| 20260510154532 | 51 | 331 | 9.0 | 19.0 | 0.00 | 0.00 | 0.00 | 43 | 1019.7 |
| 20260510153023 | 51 | 309 | 8.0 | 14.0 | 0.00 | 0.00 | 0.00 | 43 | 1019.6 |
| 20260510151520 | 50 | 304 | 9.0 | 20.0 | 0.00 | 0.00 | 0.00 | 43 | 1019.6 |
| 20260510150016 | 49 | 304 | 9.0 | 20.0 | 0.00 | 0.00 | 0.00 | 45 | 1019.5 |
| 20260510144515 | 49 | 318 | 8.0 | 18.0 | 0.00 | 0.00 | 0.00 | 46 | 1019.4 |
| 20260510143009 | 49 | 331 | 10.0 | 17.0 | 0.00 | 0.00 | 0.00 | 49 | 1019.4 |
| 20260510141509 | 47 | 335 | 10.0 | 19.0 | 0.00 | 0.00 | 0.00 | 53 | 1019.4 |
| 20260510140004 | 47 | 292 | 11.0 | 20.0 | 0.00 | 0.00 | 0.00 | 57 | 1019.1 |
| 20260510134607 | 46 | 321 | 8.0 | 16.0 | 0.00 | 0.00 | 0.00 | 61 | 1019.1 |
| 20260510133057 | 45 | 339 | 10.0 | 17.0 | 0.00 | 0.00 | 0.00 | 64 | 1019.0 |
| 20260510131555 | 45 | 331 | 5.0 | 12.0 | 0.00 | 0.00 | 0.00 | 66 | 1019.0 |
| 20260510130050 | 44 | 15 | 5.0 | 11.0 | 0.00 | 0.00 | 0.00 | 65 | 1018.9 |
| 20260510124547 | 44 | 311 | 4.0 | 9.0 | 0.00 | 0.00 | 0.00 | 65 | 1018.8 |
| 20260510123043 | 43 | 319 | 6.0 | 10.0 | 0.00 | 0.00 | 0.00 | 65 | 1018.6 |
| 20260510121542 | 42 | 307 | 3.0 | 5.0 | 0.00 | 0.00 | 0.00 | 66 | 1018.5 |
| 20260510120037 | 41 | 313 | 2.0 | 5.0 | 0.00 | 0.00 | 0.00 | 66 | 1018.3 |
| 20260510114533 | 41 | 242 | 1.0 | 4.0 | 0.00 | 0.00 | 0.00 | 67 | 1018.1 |
| 20260510113036 | 40 | 319 | 1.0 | 3.0 | 0.00 | 0.00 | 0.00 | 66 | 1017.9 |
| 20260510111526 | 40 | 319 | 1.0 | 3.0 | 0.00 | 0.00 | 0.00 | 66 | 1017.7 |
| 20260510110035 | 40 | 319 | 1.0 | 3.0 | 0.00 | 0.00 | 0.00 | 66 | 1017.6 |
| 20260510104522 | 41 | 319 | 1.0 | 3.0 | 0.00 | 0.01 | 0.00 | 65 | 1017.4 |
| 20260510103021 | 41 | 319 | 0.0 | 2.0 | 0.00 | 0.01 | 0.00 | 65 | 1017.1 |
| 20260510101519 | 41 | 319 | 1.0 | 3.0 | 0.00 | 0.01 | 0.00 | 64 | 1017.0 |
| 20260510100017 | 41 | 319 | 1.0 | 4.0 | 0.00 | 0.01 | 0.00 | 64 | 1016.8 |
| 20260510094518 | 41 | 349 | 2.0 | 4.0 | 0.00 | 0.08 | 0.00 | 64 | 1016.7 |
| 20260510093014 | 41 | 350 | 1.0 | 3.0 | 0.00 | 0.08 | 0.00 | 64 | 1016.3 |
| 20260510091514 | 41 | 343 | 1.0 | 5.0 | 0.00 | 0.08 | 0.00 | 64 | 1016.2 |
| 20260510090019 | 41 | 327 | 2.0 | 6.0 | 0.00 | 0.08 | 0.00 | 65 | 1016.1 |
| 20260510084517 | 40 | 315 | 4.0 | 9.0 | 0.00 | 0.13 | 0.00 | 67 | 1015.9 |
| 20260510083009 | 39 | 316 | 3.0 | 5.0 | 0.00 | 0.13 | 0.00 | 72 | 1015.7 |
| 20260510081506 | 37 | 330 | 2.0 | 4.0 | 0.00 | 0.13 | 0.00 | 76 | 1015.4 |
| 20260510080005 | 36 | 319 | 2.0 | 4.0 | 0.00 | 0.13 | 0.00 | 78 | 1015.2 |
| 20260510074503 | 35 | 286 | 1.0 | 5.0 | 0.00 | 0.13 | 0.00 | 77 | 1015.0 |
| 20260510073001 | 35 | 287 | 2.0 | 4.0 | 0.00 | 0.13 | 0.00 | 74 | 1015.1 |
| 20260510071559 | 35 | 287 | 1.0 | 3.0 | 0.00 | 0.13 | 0.00 | 72 | 1015.0 |
| 20260510070058 | 35 | 287 | 2.0 | 3.0 | 0.00 | 0.13 | 0.00 | 69 | 1014.9 |
| 20260510064604 | 36 | 293 | 1.0 | 3.0 | 0.00 | 0.13 | 0.00 | 67 | 1015.0 |
| 20260510063052 | 37 | 293 | 1.0 | 3.0 | 0.00 | 0.13 | 0.00 | 66 | 1014.8 |
| 20260510061550 | 37 | 293 | 0.0 | 3.0 | 0.00 | 0.13 | 0.00 | 65 | 1014.8 |
| 20260510060046 | 38 | 261 | 2.0 | 4.0 | 0.00 | 0.13 | 0.00 | 64 | 1014.7 |
| 20260510054543 | 38 | 322 | 1.0 | 3.0 | 0.00 | 0.13 | 0.00 | 63 | 1014.6 |
| 20260510053040 | 39 | 322 | 1.0 | 3.0 | 0.00 | 0.13 | 0.00 | 63 | 1014.6 |
| 20260510051536 | 40 | 322 | 0.0 | 3.0 | 0.00 | 0.13 | 0.00 | 61 | 1014.5 |
| 20260510050032 | 41 | 322 | 1.0 | 3.0 | 0.00 | 0.13 | 0.00 | 58 | 1014.4 |
| 20260510044535 | 42 | 322 | 1.0 | 3.0 | 0.00 | 0.13 | 0.13 | 56 | 1014.4 |
| 20260510043024 | 44 | 322 | 1.0 | 2.0 | 0.00 | 0.13 | 0.13 | 51 | 1014.3 |
| 20260510041522 | 46 | 322 | 0.0 | 2.0 | 0.00 | 0.13 | 0.13 | 47 | 1014.2 |
| 20260510040020 | 47 | 322 | 1.0 | 3.0 | 0.00 | 0.13 | 0.13 | 44 | 1014.1 |
| 20260510034519 | 48 | 315 | 3.0 | 5.0 | 0.00 | 0.13 | 0.13 | 43 | 1014.0 |
| 20260510033018 | 49 | 313 | 3.0 | 8.0 | 0.00 | 0.13 | 0.13 | 42 | 1013.9 |
| 20260510031522 | 49 | 314 | 6.0 | 13.0 | 0.00 | 0.13 | 0.13 | 42 | 1013.9 |
| 20260510030020 | 50 | 355 | 6.0 | 13.0 | 0.00 | 0.13 | 0.13 | 41 | 1013.7 |
| 20260510024516 | 50 | 302 | 7.0 | 12.0 | 0.00 | 0.13 | 0.13 | 41 | 1013.4 |
| 20260510023010 | 51 | 317 | 6.0 | 12.0 | 0.00 | 0.13 | 0.13 | 41 | 1013.1 |
| 20260510021513 | 51 | 335 | 6.0 | 15.0 | 0.00 | 0.13 | 0.13 | 39 | 1012.7 |
| 20260510020006 | 52 | 323 | 7.0 | 16.0 | 0.00 | 0.13 | 0.13 | 38 | 1012.3 |
| 20260510014503 | 52 | 318 | 8.0 | 14.0 | 0.00 | 0.13 | 0.13 | 37 | 1012.0 |
| 20260510013002 | 53 | 342 | 6.0 | 12.0 | 0.00 | 0.13 | 0.13 | 37 | 1011.7 |
| 20260510011600 | 53 | 347 | 7.0 | 15.0 | 0.00 | 0.13 | 0.13 | 36 | 1011.5 |
| 20260510010136 | 54 | 311 | 6.0 | 12.0 | 0.00 | 0.13 | 0.13 | 35 | 1011.3 |
| 20260510004557 | 54 | 342 | 8.0 | 14.0 | 0.00 | 0.13 | 0.13 | 34 | 1011.0 |
| 20260510003054 | 54 | 298 | 6.0 | 14.0 | 0.00 | 0.13 | 0.13 | 34 | 1010.7 |
| 20260510001552 | 54 | 325 | 7.0 | 16.0 | 0.00 | 0.13 | 0.13 | 33 | 1010.6 |
| 20260510000051 | 55 | 316 | 7.0 | 16.0 | 0.00 | 0.13 | 0.13 | 32 | 1010.4 |
| 20260509234604 | 55 | 342 | 9.0 | 16.0 | 0.00 | 0.13 | 0.13 | 31 | 1010.3 |
| 20260509233046 | 55 | 326 | 8.0 | 15.0 | 0.00 | 0.13 | 0.13 | 31 | 1010.0 |
| 20260509231545 | 56 | 324 | 5.0 | 15.0 | 0.00 | 0.13 | 0.13 | 32 | 1009.9 |
| 20260509230045 | 57 | 319 | 8.0 | 16.0 | 0.00 | 0.13 | 0.13 | 30 | 1009.7 |
| 20260509224543 | 57 | 306 | 11.0 | 17.0 | 0.00 | 0.13 | 0.13 | 31 | 1009.6 |
| 20260509223042 | 57 | 343 | 11.0 | 21.0 | 0.00 | 0.13 | 0.13 | 30 | 1009.4 |
| 20260509221540 | 57 | 9 | 9.0 | 17.0 | 0.00 | 0.13 | 0.13 | 30 | 1009.2 |
| 20260509220040 | 57 | 31 | 11.0 | 20.0 | 0.00 | 0.13 | 0.13 | 31 | 1009.2 |
| 20260509214542 | 57 | 320 | 11.0 | 20.0 | 0.00 | 0.13 | 0.13 | 30 | 1009.1 |
| 20260509213037 | 58 | 312 | 13.0 | 24.0 | 0.00 | 0.13 | 0.13 | 31 | 1009.0 |
| 20260509211542 | 57 | 319 | 10.0 | 23.0 | 0.00 | 0.13 | 0.13 | 32 | 1008.8 |
| 20260509210034 | 57 | 350 | 14.0 | 23.0 | 0.00 | 0.13 | 0.13 | 31 | 1008.7 |
| 20260509204533 | 57 | 333 | 16.0 | 26.0 | 0.00 | 0.13 | 0.13 | 31 | 1008.6 |
| 20260509203034 | 57 | 341 | 11.0 | 22.0 | 0.00 | 0.13 | 0.13 | 33 | 1008.7 |
| 20260509201531 | 57 | 34 | 11.0 | 20.0 | 0.00 | 0.13 | 0.13 | 33 | 1008.6 |
| 20260509200029 | 56 | 331 | 14.0 | 27.0 | 0.00 | 0.13 | 0.13 | 33 | 1008.7 |
| 20260509194529 | 56 | 336 | 14.0 | 27.0 | 0.00 | 0.13 | 0.13 | 33 | 1008.6 |
| 20260509193030 | 56 | 293 | 8.0 | 23.0 | 0.00 | 0.13 | 0.13 | 34 | 1008.4 |
| 20260509191527 | 56 | 311 | 11.0 | 23.0 | 0.00 | 0.13 | 0.13 | 36 | 1008.3 |
| 20260509190024 | 55 | 349 | 14.0 | 22.0 | 0.00 | 0.13 | 0.13 | 36 | 1008.1 |
| 20260509184530 | 55 | 311 | 10.0 | 23.0 | 0.00 | 0.13 | 0.13 | 36 | 1008.1 |
| 20260509183020 | 55 | 322 | 14.0 | 23.0 | 0.00 | 0.13 | 0.13 | 37 | 1007.9 |
| 20260509181518 | 55 | 327 | 7.0 | 22.0 | 0.00 | 0.13 | 0.13 | 38 | 1007.8 |
| 20260509180018 | 54 | 312 | 13.0 | 24.0 | 0.00 | 0.13 | 0.13 | 35 | 1007.8 |
| 20260509174514 | 55 | 360 | 11.0 | 21.0 | 0.00 | 0.13 | 0.13 | 36 | 1007.7 |
| 20260509173010 | 54 | 284 | 13.0 | 21.0 | 0.00 | 0.13 | 0.13 | 36 | 1007.6 |
| 20260509171509 | 54 | 22 | 12.0 | 21.0 | 0.00 | 0.13 | 0.13 | 37 | 1007.4 |
| 20260509170007 | 54 | 321 | 9.0 | 20.0 | 0.00 | 0.13 | 0.13 | 39 | 1007.3 |
| 20260509164504 | 53 | 330 | 14.0 | 23.0 | 0.00 | 0.13 | 0.13 | 42 | 1007.1 |
| 20260509163007 | 52 | 13 | 11.0 | 20.0 | 0.00 | 0.13 | 0.13 | 43 | 1007.0 |
| 20260509161502 | 52 | 296 | 11.0 | 21.0 | 0.00 | 0.13 | 0.13 | 43 | 1006.9 |
| 20260509160058 | 52 | 25 | 11.0 | 24.0 | 0.00 | 0.13 | 0.13 | 43 | 1006.7 |